Historyczne dane pomiarowe

Dodano dane terminowe – wersja testowa.

Dane z okresu 1951-2019

Wersja bazy: 1.34 [2019-03-16, lista zmian], aktualizacja planowana na 2019-04-15

Dane meteo z obszaru Polski uzyskane na podstawie danych udostępnionych przez Instytut Meteorologii i Gospodarki Wodnej – Państwowy Instytut Badawczy.

 

Wybierz Datę:    

       

TemperaturaWilgotnośćWiatrCiśnienieOpadyŚniegCzas trwania zjawisk
 Stacja t tx tn tng RH VA  wxwx mslp ppp RRR   cm mm wxwxwxwxwxwxwx
2019-07-03 15.0 19.5 9.8 4.3-- 5.3----- 0.0------------
2019-07-02 18.7 24.3 14.2 10.6-- 4.7----- 0.0------------
2019-07-01 23.2 29.4 16.2 11.6-- 5.3----- 0.5------------
2019-06-30 23.1 31.3 13.7 9.6-- 1.0----- 0.0------------
2019-06-29 17.9 24.4 9.8 7.2-- 3.7----- 0.0------------
2019-06-28 16.5 21.9 10.9 9.6-- 2.7----- 0.0------------
2019-06-27 21.9 30.8 18.3 16.8-- 5.3----- 2.7------------
2019-06-26 25.5 33.3 15.2 12.7-- 3.0----- 0.0------------
2019-06-25 21.2 28.4 11.2 6.7-- 2.3----- 0.0------------
2019-06-24 20.1 26.9 11.3 6.7-- 3.0----- 0.0------------
2019-06-23 18.2 24.9 10.8 9.1-- 3.0----- 0.0------------
2019-06-22 19.2 23.4 16.2 15.8-- 2.7----- 0.0------------
2019-06-21 20.7 25.9 17.2 16.8-- 6.7----- 0.5------------
2019-06-20 21.4 27.9 14.7 12.2-- 4.7----- 4.5------------
2019-06-19 20.4 26.9 13.3 10.6-- 4.7----- 0.0------------
2019-06-18 18.4 24.9 11.8 7.7-- 3.3----- 0.0------------
2019-06-17 19.2 23.7 15.7 14.7-- 4.3----- 0.0------------
2019-06-16 22.3 27.4 18.7 17.8-- 6.0----- 0.0------------
2019-06-15 23.5 29.4 16.7 15.8-- 2.7----- 6.8------------
2019-06-14 21.8 27.4 17.2 15.8-- 3.7----- 0.0------------
2019-06-13 24.6 31.3 16.2 12.7-- 2.7----- 10.9------------
2019-06-12 23.5 31.3 15.2 11.6-- 2.0----- 0.0------------
2019-06-11 24.2 30.4 16.2 11.6-- 1.7----- 0.0------------
2019-06-10 20.1 27.4 10.3 4.8-- 2.3----- 0.0------------
2019-06-09 19.0 24.3 14.2 12.7-- 1.3----- 0.0------------
2019-06-08 21.4 27.4 14.2 11.1-- 4.0----- 3.0------------
2019-06-07 20.3 26.9 13.7 9.6-- 2.7----- 0.0------------
2019-06-06 21.0 26.4 15.2 11.6-- 4.0----- 0.0------------
2019-06-05 21.0 26.4 14.2 10.6-- 3.0----- 0.0------------
2019-06-04 20.2 27.4 11.8 7.7-- 2.7----- 0.0------------
2019-06-03 17.8 24.4 9.3 5.8-- 0.7----- 0.0------------
2019-06-02 19.3 24.9 11.8 10.1-- 3.7----- 0.0------------
2019-06-01 17.9 22.9 11.3 8.7-- 4.7----- 0.0------------
2019-05-31 16.1 22.4 6.9 3.8-- 4.3----- 0.0------------
2019-05-30 12.4 18.0 5.4 3.4-- 3.0----- 0.0------------
2019-05-29 13.5 17.2 10.8 10.6-- 5.7----- 0.3------------
2019-05-28 17.8 23.4 14.2 12.7-- 6.7----- 10.9------------
2019-05-27 18.1 24.9 10.8 8.7-- 4.3----- 10.6------------
2019-05-26 13.8 18.5 7.4 4.8-- 5.3----- 0.0------------
2019-05-25 16.3 21.9 11.3 7.2-- 4.0----- 0.0------------
2019-05-24 15.6 20.9 11.3 10.3-- 5.3----- 0.0------------
2019-05-23 17.1 22.9 11.8 7.7-- 5.0----- 0.2------------
2019-05-22 14.7 19.0 10.3 7.7-- 6.3----- 0.0------------
2019-05-21 17.6 22.4 12.8 10.6-- 4.7----- 0.1------------
2019-05-20 18.9 24.9 14.7 13.7-- 4.7----- 8.5------------
2019-05-19 17.8 20.9 14.2 12.7-- 5.3----- 0.4------------
2019-05-18 16.8 22.3 11.3 8.7-- 8.0----- 34.2------------
2019-05-17 16.9 20.9 14.2 12.7-- 6.7----- 4.1------------
2019-05-16 15.5 20.0 12.8 10.6-- 7.3----- 11.3------------
2019-05-15 10.9 13.5 8.3 6.7-- 8.0----- 10.6------------
2019-05-14 7.8 9.5 6.4 5.3-- 8.0----- 1.4------------
2019-05-13 10.6 17.6 8.0 7.5-- 7.3----- 2.0------------
2019-05-12 13.5 20.9 5.4 9.6-- 5.0----- 0.0------------
2019-05-11 11.8 19.0 4.9 1.9-- 4.7----- 0.1------------
2019-05-10 9.9 14.0 5.4 0.5-- 6.0----- 2.0------------
2019-05-09 10.0 17.2 0.5 -5.0-- 3.0----- 0.0------------
2019-05-08 7.2 13.5 -0.5 -6.5-- 2.7----- 0.0------------
2019-05-07 9.2 13.5 6.4 4.8-- 3.7----- 0.0------------
2019-05-06 7.3 13.5 1.5 -0.5-- 5.7----- 0.0------------
2019-05-05 7.2 11.0 2.9 -2.0-- 6.7----- 0.0------------
158.1 ms

 

Źródłem pochodzenia danych jest Instytut Meteorologii i Gospodarki Wodnej – Państwowy Instytut Badawczy. Dane Instytutu Meteorologii i Gospodarki Wodnej – Państwowego Instytutu Badawczego zostały przetworzone.

Dane źródłowe można odnaleźć na stronie https://dane.imgw.pl